Find Starlink 34817

NORAD ID: 65362 Int'l Des: 2025-190 Owner: SPXS Country: US Constellation: starlink operational
LEOCIRCULAR

Aktuelle Ansicht

3D-Globus wird geladen...

Über Starlink 34817

Beschreibung wird geladen...

Nächste Überflüge

Passes for default location (London). Set your location on the main map for personalized predictions.

Höhenverlauf

Loading altitude history...

Zweizeiliger Elementsatz

1 65362U 25190M 26150.01169495 .00028676 00000-0 85645-3 0 9998
2 65362 53.1578 149.8976 0001361 118.5792 241.5348 15.34405772 42215
Epoch: 30. Mai 2026 • Age: 12 hours

Aktueller Status

Höhe 481.7 km
Geschwindigkeit 7.62 km/s
Subsatellitenpunkt -52.47°S, 2.9°W
Startdatum 28. Aug. 2025
Alter 0.7 years
Typ internet

Technische Details

Klassifizierung Payload
Masse 575.00 kg
Trockenmasse 530.00 kg
Gesamtmasse 575.00 kg
Länge 0.30 m
Durchmesser 4.10 m
Spannweite 29.00 m
Form Box + pan
Hersteller SPXS
Bus-Typ Starlink V2MO
Phasenstatus In Orbit
Besitzer/Staat SPXS/US

Most Searched